map of PHC home
Great Circle Mapper logo
PHC - Airport
Location
City:  Port Harcourt, Nigeria
Near (Alt.):Omagwa
Name:Port Harcourt International Airport
ICAO / IATA:DNPO / PHC

Details
Type:Airport (Aerodrome, Airfield)
Use:Public/Civil, International (customs port of entry)
Latitude:500'56"N (5.015494)
Longitude:656'59"E (6.949594)
Datum:WGS 1984
Elevation:87 ft (27 m)
Variation:2.0W (WMM2010 magnetic declination)
Runways:1
Longest:9846 × 197 ft (3001 × 60 m), paved

Time
Time Zone:UTC+1
Local Time:

Weather
METAR:DNPO 220900Z 26003KT 9999 BKN011 29/25 Q1013 NOSIG
TAF:DNPO 221540Z 2218/2324 21005KT 9999 TS SCT010 FEW022CB
BECMG 2219/2221 VRB03KT 8000 NSW SCT008 FEW020CB
TEMPO 2303/2307 00000KT 5000 BR SCT007 PROB30 3000
BECMG 2308/2310 24007KT 9999 BKN010

Related Locations
Nearby:
Farthest:CIS: 12255 mi / 19722 km
Canton Island, KI

Find:

   beyond  
but within

Other Information
Maps:
NOTAMs:
Links:
Sources:

  
flag of Nigeria   

Sectional Chart

Flight Planning
at skyvector.com

Satellite Image

Google Maps Satellite View

 

Copyright © 2004-2014 Karl L. Swartz. All rights reserved.
The Great Circle Mapper name and logo are trademarks of the Great Circle Mapper.
All other trademarks mentioned herein belong to their respective owners.
Please see credits for attibutions and further copyright information.

  Follow gcmap on Facebook Follow gcmap on Twitter

hCard Microformat

Geo Microformat